Simultaneous Nadir Overpasses (SNOs) Predictions

Prediction of SNOs between GOES-16 and NOAA-19 Satellite Orbit:

Table of predicted SNOs for the next 14.0 days since TLE Epoch: 4/18/2025
Index Date Time (GOES-16) GOES-16 Lat,Lon NOAA-19 Lat,Lon Distance(km) Time Diff (sec)
1 04/19/2025 14:54:59 0.06, -79.83 -0.31, -78.06 201.07 80
2 04/22/2025 03:16:32 -0.06, -81.07 -0.41, -82.62 176.08 80
3 04/23/2025 03:01:18 -0.06, -81.57 0.39, -79.58 227.29 80
4 04/25/2025 15:22:34 0.05, -82.87 0.33, -84.07 136.76 80
5 04/26/2025 15:07:20 0.05, -83.37 -0.49, -81.04 267.17 80
6 04/29/2025 03:28:53 -0.05, -84.63 -0.26, -85.59 108.62 80
7 04/30/2025 03:13:38 -0.05, -85.14 0.56, -82.55 295.21 80
8 05/01/2025 15:47:28 0.04, -85.93 1.01, -90.06 471.82 80
9 05/02/2025 15:34:53 0.04, -86.44 0.18, -87.03 67.56 80
